Content
SEND FEEDBACK

Daily
Averages
Monthly
Summary
United States of America

BERKELEY, MISSOURI


Home > North America > United States > Missouri
Elevation: 564 feet     Latitude: 38 45N     Longitude: 090 22W

WEATHER
 
SELECT A DAY
Number of Records: 206,508;   Date Range: 1/1/95 - 10/20/14
 
SHARE

PRINT THIS DATA

[ ← Previous Day ]
WEATHER ALMANAC - MAY 25, 2013
[ Next Day → ]
[ °C ]   °F
Weather ElementAverageHighLow
Temperature62.9 °F70 °F (6:51 pm)55 °F (3:51 am)
Dewpoint49.6 °F55 °F (2:51 pm)43 °F (2:51 am)
Humidity62.4 %81 % (2:51 pm)45 % (10:51 am)
Barometer30.24 in30.34 in (6:51 am)30.14 in (6:51 pm)
Wind Speed8.8 mph17.3 mph (3:51 pm)
Wind Gust21.9 mph (3:51 pm)
Weather ElementAverage
Visibility9.8 mi
Wind DirectionESE (96.8 °)

Weather ElementTotal
Precipitation0.12 in
Heating Degree Days2.5 (Base 65)
Growing Degree Days12.5 (Base 50)
Averaged from 25 records on May 25, 2013
WEATHER CONDITIONS BREAKOUT
WIND DIRECTION BREAKOUT
WEATHER BY HOUR - MAY 25, 2013
[ °C ]   °F
Local TimeTemperatureDewpointHumidityBarometerVisibilityWind DirectionWind SpeedGust SpeedPrecipitationEventsConditions
2:51 AM55.9 °F43.0 °F62 %30.27 in10.0 miCalmScattered Clouds
3:51 AM55.0 °F43.0 °F64 %30.24 in10.0 miSouth (170°)6.9 mphMostly Cloudy
4:51 AM55.9 °F44.1 °F64 %30.27 in10.0 miCalmMostly Cloudy
5:51 AM57.0 °F44.1 °F62 %30.29 in10.0 miSSE (160°)5.8 mphMostly Cloudy
6:51 AM57.0 °F45.0 °F64 %30.34 in10.0 miNE (40°)3.5 mph0.00 inRainLight Rain
7:51 AM57.0 °F48.9 °F74 %30.34 in10.0 miEast (90°)4.6 mph0.00 inMostly Cloudy
8:51 AM62.1 °F48.0 °F60 %30.31 in10.0 miESE (120°)11.5 mphMostly Cloudy
9:51 AM66.0 °F45.0 °F47 %30.30 in10.0 miSE (140°)13.8 mphMostly Cloudy
10:51 AM66.0 °F44.1 °F45 %30.30 in10.0 miSE (140°)13.8 mphOvercast
11:51 AM64.9 °F45.0 °F48 %30.31 in10.0 miESE (120°)9.2 mphOvercast
12:51 PM63.0 °F50.0 °F63 %30.30 in10.0 miEast (100°)9.2 mph0.00 inRainLight Rain
1:12 PM62.6 °F51.8 °F68 %30.30 in10.0 miENE (60°)8.1 mph0.01 inRain-ThunderstormLight Thunderstorms and Rain
1:51 PM60.1 °F54.0 °F80 %30.31 in7.0 miNE (40°)9.2 mph0.05 inRain-ThunderstormLight Thunderstorms and Rain
2:25 PM60.8 °F53.6 °F77 %30.26 in9.0 miEast (100°)12.7 mph0.03 inRainLight Rain
2:51 PM61.0 °F55.0 °F81 %30.26 in9.0 miESE (110°)12.7 mph0.03 inOvercast
3:51 PM66.9 °F52.0 °F59 %30.20 in10.0 miSE (140°)17.3 mph21.9 mphMostly Cloudy
4:51 PM69.1 °F51.1 °F53 %30.18 in10.0 miSE (140°)13.8 mph18.4 mphMostly Cloudy
5:51 PM69.1 °F52.0 °F54 %30.15 in10.0 miSSE (160°)10.4 mphMostly Cloudy
6:51 PM70.0 °F51.1 °F51 %30.14 in10.0 miSSE (150°)6.9 mphMostly Cloudy
7:51 PM68.0 °F53.1 °F59 %30.14 in10.0 miNorthMostly Cloudy
7:55 PM68.0 °F53.6 °F60 %30.15 in10.0 miEast (90°)5.8 mphOvercast
8:51 PM66.9 °F53.1 °F61 %30.14 in10.0 miEast (100°)6.9 mphOvercast
9:51 PM66.9 °F53.1 °F61 %30.17 in10.0 miEast (80°)8.1 mphOvercast
10:51 PM63.0 °F53.1 °F70 %30.17 in10.0 miEast (80°)8.1 mphPartly Cloudy
11:51 PM61.0 °F52.0 °F72 %30.19 in10.0 miEast (90°)12.7 mphPartly Cloudy
Hourly data recorded from KSTL, located miles away from Berkeley, Missouri







STORIES FROM OUR PARTNERS